Date,TemperatureHighF,TemperatureAvgF,TemperatureLowF,DewpointHighF,DewpointAvgF,DewpointLowF,HumidityHigh,HumidityAvg,HumidityLow,PressureMaxIn,PressureMinIn,WindSpeedMaxMPH,WindSpeedAvgMPH,GustSpeedMaxMPH,PrecipitationSumIn
2013-1-1,32,18,8,8,-1,-8,65,44,31,29.99,29.87,8,1,8,0.00
2013-1-2,34,19,7,5,-2,-9,48,40,25,30.11,29.96,11,2,11,0.00
2013-1-3,37,20,10,5,-5,-11,48,34,19,30.11,30.02,10,2,10,0.00
2013-1-4,47,24,9,9,-4,-13,45,30,17,30.05,29.90,8,1,8,0.00
2013-1-5,42,23,10,12,1,-7,52,40,28,30.14,29.90,11,2,11,0.00
2013-1-6,49,25,6,9,0,-9,59,36,16,30.08,29.81,6,1,6,0.00
2013-1-7,52,33,20,12,4,-3,43,31,16,29.90,29.69,10,1,10,0.00
2013-1-8,54,35,19,16,7,0,44,32,18,30.05,29.69,18,2,18,0.00
2013-1-9,59,34,17,17,7,2,57,36,14,30.14,29.87,13,2,13,0.00
2013-1-10,46,37,24,12,8,-2,43,30,20,29.87,29.43,17,3,17,0.00
2013-1-11,41,26,10,26,10,2,74,54,28,29.66,29.28,21,3,21,0.00
2013-1-12,18,9,0,6,-2,-15,69,58,44,29.87,29.66,11,2,11,0.00
2013-1-13,18,7,-1,-1,-12,-18,49,42,38,29.96,29.81,8,2,8,0.00
2013-1-14,18,7,0,3,-12,-18,58,41,39,29.99,29.87,6,1,6,0.00
2013-1-15,34,18,-4,6,-5,-22,46,36,30,29.96,29.90,8,2,8,0.00
2013-1-16,52,33,18,18,7,-1,46,34,21,30.16,29.96,10,2,10,0.00
2013-1-17,50,30,14,16,7,2,60,41,21,30.25,30.05,8,1,8,0.00
2013-1-18,57,33,16,13,3,-8,51,31,15,30.05,29.93,8,2,15,0.00
2013-1-19,59,37,20,10,1,-7,35,23,14,30.11,29.93,8,1,8,0.00
2013-1-20,48,31,20,10,3,-3,44,31,17,30.11,29.96,13,2,13,0.00
2013-1-21,56,34,13,16,4,-6,58,32,15,30.05,29.93,14,2,14,0.00
2013-1-22,63,39,0,13,-1,-11,27,18,13,30.05,29.90,21,3,21,0.00
2013-1-23,55,36,22,8,-2,-13,25,20,15,30.05,29.96,5,1,6,0.00
2013-1-24,66,45,23,16,8,-3,40,24,13,29.99,29.84,18,3,18,0.00
2013-1-25,61,41,26,24,14,7,54,35,21,30.05,29.93,8,2,8,0.00
2013-1-26,56,39,23,34,19,10,77,48,25,29.93,29.66,8,1,8,0.00
2013-1-27,57,41,27,31,22,9,79,51,26,29.72,29.63,9,2,9,0.00
2013-1-28,60,38,28,29,19,10,91,52,17,29.69,29.49,20,3,20,0.00
2013-1-29,30,26,20,27,16,4,90,69,41,29.84,29.60,10,3,13,0.00
2013-1-30,40,26,10,10,5,-3,57,41,28,29.81,29.72,26,5,26,0.00
2013-1-31,49,35,21,15,9,3,48,34,19,29.99,29.78,20,4,20,0.00
2013-2-1,51,34,20,15,9,6,55,37,19,30.05,29.90,24,4,24,0.00
2013-2-2,58,34,17,16,7,-7,61,35,14,30.16,30.05,17,2,17,0.00
2013-2-3,57,36,20,16,6,-6,52,31,14,30.08,29.81,15,1,15,0.00
2013-2-4,54,36,18,12,4,-2,46,28,15,29.87,29.75,17,2,17,0.00
2013-2-5,61,40,22,17,7,-1,46,28,14,29.93,29.75,11,2,11,0.00
2013-2-6,58,39,24,33,16,4,93,45,17,29.96,29.72,10,2,10,0.08
2013-2-7,47,34,24,33,20,9,94,62,28,30.05,29.87,12,2,12,0.00
2013-2-8,52,37,24,17,10,6,55,34,21,29.90,29.60,13,2,13,0.00
2013-2-9,39,29,20,27,13,4,72,52,36,29.66,29.49,10,2,10,0.00
2013-2-10,38,28,20,14,8,0,71,44,24,29.90,29.52,13,2,13,0.00
2013-2-11,35,24,13,11,6,2,66,48,32,29.93,29.84,13,2,13,0.00
2013-2-12,42,26,11,7,-1,-10,58,35,18,29.93,29.87,10,2,10,0.00
2013-2-13,48,32,18,13,2,-5,36,28,19,29.87,29.81,24,4,24,0.00
2013-2-14,38,28,21,24,13,3,82,58,31,30.14,29.87,16,3,16,0.00
2013-2-15,40,26,13,15,8,3,70,49,26,30.14,30.05,13,2,13,0.00
2013-2-16,57,37,20,15,6,-4,51,30,15,30.05,29.84,24,4,24,0.00
2013-2-17,64,40,22,13,6,-4,44,26,13,29.84,29.52,20,4,20,0.00
2013-2-18,44,32,20,12,2,-10,52,30,18,29.96,29.69,21,4,21,0.00
2013-2-19,44,28,13,8,0,-9,45,31,20,29.93,29.66,8,1,8,0.00
2013-2-20,40,28,22,26,13,2,86,55,30,29.69,29.54,10,2,10,0.00
2013-2-21,30,22,15,27,17,9,88,81,75,29.78,29.60,9,2,9,0.00
2013-2-22,36,22,10,28,14,3,81,69,52,29.81,29.72,10,2,10,0.00
2013-2-23,51,31,12,25,13,4,75,51,26,29.72,29.52,11,3,11,0.04
2013-2-24,30,28,24,28,24,0,90,85,76,29.96,29.60,14,4,14,0.00
2013-2-25,33,23,9,31,18,3,92,82,68,29.93,29.69,9,2,9,0.08
2013-2-26,34,25,14,30,18,8,85,73,52,29.96,29.66,14,3,14,0.00
2013-2-27,36,25,14,17,11,1,72,56,40,30.08,29.96,12,3,12,0.00
2013-2-28,45,28,9,21,8,-3,57,43,32,30.08,29.99,26,4,26,0.00
2013-3-1,53,37,22,19,11,6,53,36,23,30.16,30.05,10,2,10,0.00
2013-3-2,62,42,23,22,15,10,59,37,17,30.14,29.93,13,2,13,0.00
2013-3-3,64,47,34,22,16,10,51,31,16,29.93,29.60,18,2,18,0.00
2013-3-4,37,29,14,28,19,8,89,66,39,30.05,29.60,12,2,12,0.00
2013-3-5,41,25,8,27,12,2,79,59,36,30.11,29.96,9,1,9,0.00
2013-3-6,62,36,16,26,13,8,74,44,14,29.99,29.75,12,2,12,0.00
2013-3-7,68,44,24,19,14,11,61,34,12,29.90,29.75,13,2,13,0.00
2013-3-8,52,39,27,23,18,11,60,44,30,29.87,29.60,8,2,8,0.00
2013-3-9,35,31,25,32,26,17,98,82,56,29.96,29.54,9,1,9,0.00
2013-3-10,41,28,12,30,18,6,78,67,49,30.02,29.90,10,2,10,0.20
2013-3-11,56,38,23,29,18,13,87,50,20,30.02,29.81,24,4,25,0.00
2013-3-12,40,33,27,35,27,23,89,81,57,30.16,29.99,8,1,8,0.08
2013-3-13,69,45,26,29,20,7,82,46,15,30.14,30.02,17,3,17,0.00
2013-3-14,75,51,31,24,15,6,52,28,11,30.19,30.08,15,2,15,0.00
2013-3-15,77,57,42,24,15,6,33,21,10,30.08,29.84,15,3,15,0.00
2013-3-16,54,48,39,27,20,7,51,35,19,29.93,29.75,10,2,10,0.00
2013-3-17,64,45,30,22,16,6,62,35,13,29.75,29.52,26,5,26,0.00
2013-3-18,55,40,26,11,4,-3,42,24,15,29.84,29.75,25,4,27,0.00
2013-3-19,59,42,27,10,5,-3,43,23,14,30.19,29.81,17,4,17,0.00
2013-3-20,58,39,20,16,9,2,51,31,17,30.16,29.66,10,2,10,0.00
2013-3-21,62,43,28,23,12,0,50,30,16,29.75,29.49,22,4,22,0.00
2013-3-22,53,37,27,28,15,-1,88,45,22,29.81,29.57,20,3,20,0.00
2013-3-23,28,22,10,25,17,4,87,82,75,30.05,29.78,11,3,11,0.00
2013-3-24,28,17,0,25,12,-5,90,81,75,30.05,29.93,9,2,9,0.00
2013-3-25,37,23,9,27,15,4,82,72,50,30.11,30.02,9,2,9,0.04
2013-3-26,55,34,16,48,20,7,85,58,26,30.02,29.81,10,2,10,0.00
2013-3-27,62,42,25,25,20,14,71,46,24,30.02,29.87,13,2,13,0.00
2013-3-28,67,46,29,30,22,16,74,43,15,30.02,29.93,13,2,13,0.00
2013-3-29,71,51,34,28,21,16,57,34,14,30.05,29.96,15,3,15,0.00
2013-3-30,72,51,34,27,21,13,53,34,12,30.14,29.96,22,4,22,0.00
2013-3-31,73,52,30,28,18,6,74,34,11,30.11,29.90,13,2,13,0.00
2013-4-1,60,46,32,31,20,10,68,37,21,30.08,29.90,17,4,19,0.00
2013-4-2,44,40,38,37,30,23,89,69,45,30.02,29.93,8,2,8,0.04
2013-4-3,64,47,37,39,27,13,92,55,16,30.05,29.96,10,1,10,0.00
2013-4-4,75,53,32,25,18,10,56,29,13,30.08,29.96,10,3,10,0.00
2013-4-5,77,58,43,26,18,11,35,22,11,29.96,29.69,37,3,37,0.00
2013-4-6,68,56,41,21,16,8,29,22,15,29.90,29.81,20,4,24,0.00
2013-4-7,69,54,40,30,19,12,49,27,15,29.81,29.69,19,4,19,0.00
2013-4-8,71,47,28,27,21,16,85,39,14,29.78,29.40,20,4,20,0.00
2013-4-9,28,19,12,23,14,6,82,78,74,30.05,29.78,13,4,13,0.00
2013-4-10,32,21,7,24,13,1,87,71,54,30.02,29.75,11,3,11,0.08
2013-4-11,57,38,19,33,21,12,78,54,26,29.84,29.66,16,2,16,0.00
2013-4-12,66,44,29,36,22,16,71,44,16,29.90,29.78,18,3,18,0.00
2013-4-13,72,50,28,26,18,10,69,36,11,29.87,29.43,15,3,15,0.00
2013-4-14,57,45,34,45,21,1,97,49,15,29.72,29.49,27,6,27,0.08
2013-4-15,39,32,25,27,18,2,85,62,21,29.93,29.63,19,3,19,0.00
2013-4-16,37,31,25,34,26,19,89,83,78,29.93,29.75,15,4,15,0.12
2013-4-17,34,29,21,31,26,19,97,91,87,30.02,29.84,11,4,11,0.04
2013-4-18,41,28,14,29,18,8,89,71,35,30.05,29.96,12,3,12,0.04
2013-4-19,60,41,21,25,14,10,66,38,17,30.02,29.87,15,2,15,0.00
2013-4-20,66,48,32,26,20,14,52,33,18,29.93,29.81,10,2,10,0.00
2013-4-21,70,51,34,26,18,9,57,31,13,29.99,29.90,17,2,17,0.00
2013-4-22,56,35,24,29,23,16,89,63,32,30.14,29.81,17,3,17,0.00
2013-4-23,41,28,23,37,25,19,98,89,62,30.11,30.02,8,3,8,0.08
2013-4-24,64,39,21,43,20,5,92,56,13,30.08,29.99,15,3,15,0.00
2013-4-25,67,48,27,21,13,9,53,28,12,30.05,29.84,10,2,10,0.00
2013-4-26,72,53,33,23,15,6,48,24,11,30.14,29.93,13,2,13,0.00
2013-4-27,82,58,36,23,15,5,41,21,9,30.14,29.99,13,3,13,0.00
2013-4-28,84,63,38,25,16,6,34,19,9,30.02,29.84,15,3,15,0.00
2013-4-29,86,67,47,28,19,9,36,17,9,29.93,29.69,18,3,18,0.00
2013-4-30,65,53,41,30,23,10,64,32,17,29.96,29.66,15,3,15,0.00
2013-5-1,41,33,27,36,31,26,98,91,67,30.40,29.96,9,0,9,0.08
2013-5-2,52,34,21,40,25,13,98,74,29,30.49,30.22,9,1,9,0.20
2013-5-3,65,46,25,24,15,6,66,33,15,30.22,30.02,12,2,12,0.00
2013-5-4,63,49,0,26,18,0,50,30,21,30.11,29.96,11,3,11,0.00
2013-5-5,62,50,34,23,17,12,46,29,19,30.11,29.99,10,2,10,0.00
2013-5-6,70,54,38,30,23,16,45,31,20,30.02,29.87,9,2,9,0.00
2013-5-7,76,57,44,52,32,20,98,45,15,29.99,29.84,11,2,11,0.04
2013-5-8,64,49,41,50,42,29,98,83,30,29.99,29.87,20,2,20,0.28
2013-5-9,60,48,40,52,44,32,98,86,36,30.11,29.96,13,2,13,0.12
2013-5-10,71,52,35,48,34,24,98,61,22,30.19,30.05,22,2,22,0.04
2013-5-11,74,58,42,35,29,23,58,35,16,30.28,30.16,16,3,16,0.00
2013-5-12,84,65,47,33,26,18,48,26,11,30.16,30.02,11,3,11,0.00
2013-5-13,90,69,49,34,26,20,41,23,10,30.11,29.99,15,2,15,0.00
2013-5-14,87,68,50,35,28,22,42,25,11,30.02,29.90,17,3,17,0.00
2013-5-15,87,67,53,42,32,24,48,29,11,30.02,29.87,17,3,17,0.00
2013-5-16,87,68,48,39,30,18,60,29,11,29.96,29.75,13,2,13,0.00
2013-5-17,94,72,49,35,23,6,50,21,6,29.90,29.69,15,3,15,0.00
2013-5-18,79,64,53,28,13,6,33,15,8,29.90,29.78,24,3,24,0.00
2013-5-19,71,60,51,32,21,7,46,26,9,29.87,29.75,15,3,15,0.00
2013-5-20,66,54,48,43,32,24,75,45,24,29.99,29.81,13,2,13,0.00
2013-5-21,72,57,41,37,22,7,80,35,9,29.99,29.84,19,3,19,0.00
2013-5-22,78,61,44,41,24,9,54,29,8,30.05,29.81,13,2,13,0.00
2013-5-23,70,60,48,43,37,31,76,45,25,30.05,29.90,16,3,16,0.00
2013-5-24,88,70,50,47,27,9,71,30,5,29.99,29.81,14,2,14,0.00
2013-5-25,89,73,54,48,24,9,63,24,5,29.99,29.78,15,2,15,0.00
2013-5-26,86,71,56,36,17,9,36,16,6,29.93,29.81,17,2,17,0.00
2013-5-27,85,69,52,40,19,7,47,19,6,29.90,29.72,24,2,24,0.00
2013-5-28,83,66,48,35,22,8,48,23,6,29.84,29.57,17,2,17,0.00
2013-5-29,66,59,51,49,35,14,79,43,16,29.75,29.63,15,2,15,0.20
2013-5-30,70,60,47,28,15,6,46,19,9,29.87,29.69,27,5,27,0.00
2013-5-31,73,62,45,26,12,4,42,17,9,29.99,29.81,24,5,24,0.00
2013-6-1,72,59,44,30,23,4,56,27,12,30.14,29.99,12,2,12,0.00
2013-6-2,86,66,44,32,20,8,59,23,6,30.14,29.78,11,2,11,0.00
2013-6-3,90,74,50,31,16,8,47,16,5,29.93,29.72,17,3,21,0.00
2013-6-4,76,64,51,44,35,6,75,38,10,30.16,29.90,12,2,14,0.12
2013-6-5,58,52,47,45,40,36,83,65,47,30.14,30.05,10,1,10,0.00
2013-6-6,81,63,43,46,30,10,86,39,8,30.08,29.96,14,2,14,0.00
2013-6-7,82,68,52,39,27,15,58,26,9,30.08,29.81,15,2,19,0.00
2013-6-8,79,68,58,39,29,18,37,25,13,30.02,29.78,12,2,12,0.00
2013-6-9,92,72,48,42,23,6,70,26,4,30.02,29.87,9,2,9,0.00
2013-6-10,99,82,61,31,13,4,32,9,3,29.96,29.84,15,2,17,0.00
2013-6-11,98,82,59,32,16,4,36,12,3,29.99,29.78,22,4,22,0.00
2013-6-12,93,78,57,29,13,6,28,10,4,30.14,29.93,17,3,17,0.00
2013-6-13,85,73,59,51,41,15,71,36,10,30.14,29.93,13,2,13,0.00
2013-6-14,90,77,65,37,22,9,34,14,5,30.02,29.87,19,4,19,0.00
2013-6-15,81,70,57,41,37,33,50,32,20,30.11,29.96,9,2,9,0.00
2013-6-16,84,68,57,43,32,10,55,30,7,30.14,29.99,30,2,30,0.00
2013-6-17,82,68,51,40,30,15,59,29,9,30.14,30.02,11,2,11,0.00
2013-6-18,86,70,55,50,37,17,73,35,8,30.14,29.87,25,3,25,0.00
2013-6-19,96,76,54,46,27,6,67,25,4,29.99,29.66,20,3,20,0.00
2013-6-20,94,74,53,39,19,6,42,17,4,29.96,29.81,12,1,12,0.00
2013-6-21,98,77,58,37,21,4,38,17,3,29.96,29.78,17,1,17,0.00
2013-6-22,88,72,57,44,34,17,57,27,9,29.99,29.78,15,1,15,0.00
2013-6-23,87,68,54,51,37,11,68,37,6,30.05,29.84,9,2,13,0.00
2013-6-24,92,71,59,38,26,6,44,25,4,29.99,29.75,6,1,6,0.00
2013-6-25,94,76,57,30,18,6,31,14,4,30.05,29.87,12,1,12,0.00
2013-6-26,98,80,57,36,19,4,43,15,3,30.11,30.02,11,2,11,0.00
2013-6-27,98,82,61,37,20,4,35,14,3,30.22,30.11,11,2,11,0.00
2013-6-28,95,80,64,52,34,16,58,21,6,30.28,30.14,16,2,16,0.00
2013-6-29,85,73,61,53,43,28,69,36,13,30.25,30.11,8,2,15,0.00
2013-6-30,77,69,61,54,46,42,65,46,31,30.19,30.14,12,2,12,0.00
2013-7-1,82,68,55,54,44,33,83,46,20,30.25,30.14,13,2,13,0.04
2013-7-2,87,70,54,57,36,15,88,40,8,30.25,30.08,13,1,13,0.00
2013-7-3,91,72,55,47,32,10,66,29,6,30.14,29.93,12,2,12,0.00
2013-7-4,94,75,59,42,30,16,49,23,6,30.05,29.93,14,2,14,0.00
2013-7-5,92,74,61,54,38,17,66,30,7,29.99,29.87,19,1,19,0.00
2013-7-6,93,77,67,46,36,18,44,26,7,30.05,29.93,15,2,15,0.00
2013-7-7,84,74,63,54,42,36,56,33,19,30.11,30.02,12,2,12,0.00
2013-7-8,96,80,64,45,31,16,45,23,6,30.14,30.05,10,2,11,0.00
2013-7-9,94,79,63,41,26,6,43,20,4,30.19,30.08,20,2,20,0.00
2013-7-10,88,76,61,46,40,24,55,30,12,30.22,30.05,17,2,17,0.00
2013-7-11,98,79,61,54,37,4,62,29,3,30.14,29.93,17,3,17,0.00
2013-7-12,93,76,65,59,42,16,73,36,6,30.11,29.99,15,2,15,0.00
2013-7-13,95,72,62,61,52,25,90,58,9,30.19,30.08,25,1,25,0.75
2013-7-14,83,70,58,61,53,44,93,59,27,30.22,30.14,11,1,11,0.00
2013-7-15,76,68,64,64,53,34,90,61,31,30.19,30.11,17,2,17,0.12
2013-7-16,83,71,55,47,38,27,66,33,14,30.22,30.11,15,4,15,0.00
2013-7-17,92,75,57,51,39,22,73,32,10,30.22,30.11,17,3,17,0.00
2013-7-18,94,77,61,48,38,16,60,28,6,30.14,30.11,17,2,17,0.00
2013-7-19,86,74,65,49,44,36,54,36,20,30.14,30.14,11,2,11,0.00
2013-7-20,94,74,59,54,41,16,77,39,6,30.14,30.14,12,2,13,0.00
2013-7-21,92,76,59,50,41,18,65,33,7,30.14,30.14,10,1,10,0.00
2013-7-22,98,80,60,46,30,4,52,21,3,30.14,29.96,11,2,11,0.00
2013-7-23,94,78,61,46,30,16,40,21,6,30.16,30.02,8,1,8,0.00
2013-7-24,83,73,65,54,45,34,64,39,21,30.19,30.05,19,2,19,0.00
2013-7-25,82,66,59,56,48,36,78,55,20,30.25,30.08,15,1,15,0.08
2013-7-26,88,72,56,51,37,17,72,36,8,30.25,30.14,15,1,15,0.00
2013-7-27,81,68,56,58,45,38,83,48,22,30.19,30.05,8,1,8,0.16
2013-7-28,72,64,60,62,56,49,91,76,47,30.11,29.99,7,0,7,0.04
2013-7-29,73,64,57,59,52,42,88,68,36,30.16,29.96,10,1,10,0.00
2013-7-30,90,71,56,53,40,17,80,42,8,30.25,30.16,27,1,27,0.04
2013-7-31,92,74,61,49,37,17,63,33,7,30.31,30.14,10,1,14,0.00
2013-8-1,92,74,61,53,38,6,71,34,4,30.22,29.99,13,2,15,0.00
2013-8-2,94,76,59,49,34,16,64,29,6,30.11,29.99,21,2,21,0.00
2013-8-3,93,74,60,56,41,17,84,37,6,30.28,30.08,22,2,22,0.28
2013-8-4,91,71,56,55,44,18,82,46,7,30.25,30.08,17,1,17,0.24
2013-8-5,87,74,61,48,38,24,53,31,11,30.14,30.05,12,2,14,0.00
2013-8-6,91,73,59,47,34,9,59,29,5,30.14,30.02,20,2,20,0.00
2013-8-7,74,68,60,50,43,36,68,42,28,30.14,30.05,13,2,13,0.00
2013-8-8,78,64,55,56,49,39,84,62,28,30.19,30.05,21,2,21,0.28
2013-8-9,82,63,51,52,43,22,82,52,13,30.19,30.11,12,2,12,0.04
2013-8-10,89,68,51,51,37,17,80,40,8,30.19,30.05,13,2,13,0.00
2013-8-11,86,68,58,56,41,23,66,40,11,30.19,30.11,15,1,15,0.12
2013-8-12,83,66,54,55,44,37,83,49,20,30.25,30.11,15,2,15,0.08
2013-8-13,81,66,54,54,43,30,84,48,19,30.25,30.14,15,2,15,0.00
2013-8-14,85,68,53,52,38,17,79,40,8,30.19,30.08,11,1,11,0.00
2013-8-15,88,71,54,45,33,9,67,31,6,30.19,30.08,8,1,8,0.00
2013-8-16,93,74,55,44,27,6,60,25,4,30.19,30.08,9,1,9,0.00
2013-8-17,96,77,58,40,26,6,48,22,4,30.16,29.99,10,2,10,0.00
2013-8-18,93,76,58,50,31,6,66,27,4,30.14,30.05,10,1,10,0.00
2013-8-19,96,78,58,42,26,6,51,21,4,30.11,30.02,10,2,10,0.00
2013-8-20,98,81,64,39,22,4,35,15,3,30.11,29.96,11,2,11,0.00
2013-8-21,91,76,64,44,33,17,45,24,7,30.16,30.05,13,2,13,0.00
2013-8-22,86,70,62,55,49,39,74,50,25,30.22,30.11,15,2,15,0.04
2013-8-23,90,72,60,52,43,25,72,40,10,30.22,29.99,15,2,15,0.00
2013-8-24,88,70,58,59,44,24,76,46,10,30.16,30.05,15,1,15,0.08
2013-8-25,92,74,61,54,43,18,72,41,7,30.19,30.08,13,1,13,0.00
2013-8-26,93,76,60,58,42,25,79,38,9,30.19,30.11,11,1,11,0.00
2013-8-27,93,77,63,50,42,24,63,33,9,30.19,30.08,10,1,10,0.00
2013-8-28,95,77,61,51,38,16,65,32,6,30.14,30.08,9,1,9,0.00
2013-8-29,96,78,61,45,33,16,50,25,6,30.16,30.11,13,1,13,0.00
2013-8-30,92,74,67,56,42,23,60,34,9,30.22,30.11,17,1,17,0.00
2013-8-31,92,76,65,53,37,18,57,29,7,30.14,30.05,14,1,14,0.00
2013-9-1,79,70,64,51,45,40,59,41,31,30.22,30.11,8,1,8,0.00
2013-9-2,90,74,57,54,39,18,75,35,7,30.16,30.05,10,1,10,0.00
2013-9-3,93,79,65,50,35,16,54,26,6,30.14,30.05,13,2,13,0.00
2013-9-4,92,77,68,48,38,18,45,28,7,30.25,30.14,9,1,9,0.00
2013-9-5,98,76,62,50,38,16,61,32,6,30.22,30.11,14,1,14,0.00
2013-9-6,98,78,61,42,30,4,45,23,3,30.16,30.08,12,1,12,0.00
2013-9-7,95,77,59,45,29,6,56,24,4,30.16,30.02,12,2,12,0.00
2013-9-8,92,74,57,44,32,17,47,26,7,30.08,29.93,10,1,10,0.00
2013-9-9,86,68,58,53,45,29,75,48,16,30.11,29.93,14,2,14,0.00
2013-9-10,70,63,60,57,54,49,88,73,48,30.22,30.08,11,1,11,0.16
2013-9-11,70,63,60,66,59,57,93,88,74,30.22,30.14,6,0,6,0.24
2013-9-12,67,62,59,64,58,53,94,88,74,30.25,30.16,14,2,14,0.63
2013-9-13,77,65,58,63,55,44,94,74,32,30.19,29.93,10,1,10,0.35
2013-9-14,81,64,59,61,53,38,92,73,24,30.08,29.93,15,1,15,0.00
2013-9-15,62,58,55,55,53,48,91,82,70,30.25,30.08,8,0,8,0.39
2013-9-16,78,62,50,58,48,41,93,67,29,30.22,30.05,6,1,6,0.31
2013-9-17,86,68,51,51,34,9,83,41,6,30.08,29.84,9,2,9,0.31
2013-9-18,85,69,56,45,34,17,64,32,8,29.96,29.81,13,2,13,0.31
2013-9-19,66,60,50,39,32,24,58,35,26,30.16,29.93,8,1,8,0.00
2013-9-20,77,61,49,42,36,24,70,44,15,30.16,30.02,8,1,8,0.31
2013-9-21,84,66,48,50,29,9,83,37,6,30.08,29.84,11,2,11,0.31
2013-9-22,78,64,52,46,35,24,69,37,16,29.87,29.69,22,2,22,0.31
2013-9-23,67,58,49,50,28,10,88,42,12,30.05,29.63,22,4,22,0.91
2013-9-24,79,59,40,32,22,9,60,30,8,30.08,29.90,8,1,8,0.31
2013-9-25,85,66,42,38,20,7,71,25,6,29.90,29.54,17,2,17,0.31
2013-9-26,73,60,45,41,33,15,69,39,16,29.81,29.63,9,1,9,0.31
2013-9-27,52,48,40,47,42,36,87,81,69,29.96,29.75,8,0,8,0.08
2013-9-28,71,50,34,38,24,7,89,49,9,30.11,29.96,8,1,8,0.31
2013-9-29,80,57,38,33,23,8,68,36,7,30.08,29.93,8,1,8,0.31
2013-9-30,85,65,50,38,26,9,57,29,6,29.93,29.84,8,1,8,0.31
2013-10-1,79,60,44,39,31,16,66,39,10,30.05,29.93,11,2,11,0.31
2013-10-2,78,61,43,42,28,10,76,37,8,29.96,29.90,11,2,11,0.31
2013-10-3,68,53,40,44,35,30,79,54,26,29.93,29.75,11,2,11,0.31
2013-10-4,50,39,30,44,28,15,88,68,40,30.11,29.75,8,1,8,0.31
2013-10-5,63,43,27,27,13,-3,78,40,9,30.14,30.05,15,2,15,0.00
2013-10-6,71,50,31,29,15,4,56,31,9,30.19,30.11,8,1,8,0.31
2013-10-7,82,58,36,31,20,7,66,31,7,30.14,29.93,8,1,8,0.31
2013-10-8,82,62,46,30,19,7,51,25,7,29.93,29.75,8,1,8,0.31
2013-10-9,67,55,42,35,30,26,60,40,24,29.96,29.84,8,1,8,0.00
2013-10-10,62,50,42,44,35,31,84,59,36,29.93,29.57,25,1,25,0.31
2013-10-11,61,53,40,32,21,8,71,33,14,29.99,29.52,13,2,13,0.31
2013-10-12,63,48,37,38,32,27,82,57,30,30.08,29.96,13,1,13,0.31
2013-10-13,67,49,34,41,32,28,82,56,27,30.05,29.84,8,1,8,0.31
2013-10-14,59,46,40,43,32,24,86,61,34,30.11,29.78,17,2,17,0.04
2013-10-15,40,38,35,24,17,14,55,43,40,30.19,30.08,9,2,9,0.31
2013-10-16,57,41,28,28,18,7,75,44,15,30.11,29.96,8,1,8,0.31
2013-10-17,53,42,32,24,21,17,61,45,28,30.05,29.93,8,2,8,0.31
2013-10-18,46,37,29,32,22,17,82,56,34,30.11,29.96,10,1,10,0.31
2013-10-19,68,47,27,22,13,2,74,35,10,30.02,29.87,17,2,17,0.31
2013-10-20,50,42,34,32,24,15,83,51,27,30.05,29.84,10,1,10,0.04
2013-10-21,61,42,28,37,21,7,88,52,14,30.08,30.02,10,1,10,0.31
2013-10-22,66,49,34,26,19,10,54,34,12,30.11,30.02,10,1,10,0.31
2013-10-23,67,49,34,27,21,11,65,39,12,30.14,30.02,9,1,9,0.31
2013-10-24,59,44,31,35,28,24,81,56,31,30.16,30.11,6,1,6,0.31
2013-10-25,71,49,32,40,23,7,85,47,9,30.16,30.02,9,1,9,0.31
2013-10-26,65,47,33,36,24,11,78,46,13,30.25,30.05,8,1,8,0.00
2013-10-27,72,52,36,26,16,4,61,31,9,30.05,29.84,8,1,8,0.31
2013-10-28,43,37,33,30,26,18,85,66,38,29.96,29.81,8,2,8,0.31
2013-10-29,40,37,33,33,28,23,86,71,51,29.93,29.78,6,1,6,0.00
2013-10-30,56,40,33,38,28,11,87,65,20,29.81,29.72,10,2,10,0.31
2013-10-31,54,43,29,27,12,1,81,36,13,29.84,29.75,25,4,25,0.00
2013-11-1,54,44,32,24,14,2,50,31,13,30.11,29.84,22,3,22,0.31
2013-11-2,68,41,25,21,13,4,63,39,10,30.08,29.72,8,1,8,0.00
2013-11-3,70,53,38,18,8,-2,45,18,9,29.81,29.57,15,2,15,0.00
2013-11-4,47,37,29,24,13,4,67,39,21,29.93,29.78,13,4,13,0.00
2013-11-5,46,35,25,17,6,-8,51,31,12,30.05,29.78,11,3,11,0.00
2013-11-6,54,38,23,8,2,-4,35,23,11,30.19,30.02,19,3,19,0.00
2013-11-7,62,42,25,16,9,3,47,30,11,30.25,29.90,7,1,7,0.00
2013-11-8,67,50,30,17,10,2,51,24,10,29.93,29.75,8,2,11,0.00
2013-11-9,68,48,34,21,15,7,50,30,10,30.14,29.93,9,1,9,0.00
2013-11-10,69,48,29,26,14,-1,70,33,9,30.14,30.08,7,1,7,0.00
2013-11-11,68,42,32,24,15,5,70,40,10,30.43,30.08,14,2,14,0.00
2013-11-12,64,45,32,25,17,6,73,38,11,30.43,30.22,9,2,9,0.00
2013-11-13,71,50,29,16,7,-4,54,23,9,30.22,29.96,9,2,9,0.00
2013-11-14,61,50,38,24,15,2,42,26,13,30.05,29.72,18,2,18,0.00
2013-11-15,65,49,28,18,10,-2,52,25,9,29.72,29.49,17,3,17,0.00
2013-11-16,61,44,29,26,13,-1,61,33,9,29.54,29.37,25,3,25,0.00
2013-11-17,58,44,33,17,8,-1,44,24,12,29.96,29.54,15,4,15,0.00
2013-11-18,68,44,25,15,6,-5,53,26,9,30.05,29.93,9,2,9,0.00
2013-11-19,63,46,30,11,6,1,36,21,11,29.93,29.69,11,1,11,0.00
2013-11-20,59,48,31,19,10,2,57,24,12,29.96,29.75,16,2,16,0.00
2013-11-21,30,18,14,19,6,1,74,60,50,30.37,29.93,10,3,10,0.00
2013-11-22,35,28,17,12,8,3,55,44,34,30.40,30.28,7,2,7,0.00
2013-11-23,38,30,26,13,6,-2,54,37,28,30.40,30.14,8,1,8,0.00
2013-11-24,36,30,23,20,15,11,67,54,42,30.14,29.87,6,1,6,0.00
2013-11-25,41,36,27,21,14,5,65,42,23,30.16,29.90,10,2,10,0.00
2013-11-26,50,36,25,20,12,0,73,43,14,30.25,30.11,8,1,8,0.00
2013-11-27,67,44,28,13,8,-2,50,26,9,30.11,29.96,10,2,10,0.00
2013-11-28,50,36,25,19,14,11,60,43,26,30.11,30.02,7,1,7,0.00
2013-11-29,64,42,25,18,9,-4,66,32,9,30.08,29.96,9,1,9,0.00
2013-11-30,61,42,28,11,4,-6,43,24,9,30.08,30.02,6,2,6,0.00
2013-12-1,58,43,26,15,5,-1,42,23,12,30.05,29.81,15,2,15,0.00
2013-12-2,60,53,43,12,6,0,28,15,12,29.81,29.54,25,6,25,0.00
2013-12-3,59,37,13,17,4,-2,60,30,12,29.69,29.46,17,4,17,0.00
2013-12-4,13,8,1,0,-5,-12,55,55,55,29.93,29.66,8,3,8,0.00
2013-12-5,9,2,-6,-4,-11,-18,55,55,55,29.96,29.84,10,2,10,0.00
2013-12-6,10,2,-4,-3,-10,-16,55,55,55,30.05,29.93,6,1,6,0.00
2013-12-7,11,3,-6,-2,-10,-18,55,55,55,29.99,29.66,6,1,6,0.00
2013-12-8,24,11,3,3,-5,-10,55,49,38,29.84,29.60,7,2,7,0.00
2013-12-9,29,14,2,-2,-10,-18,48,35,15,29.99,29.81,23,4,23,0.00
2013-12-10,50,29,7,6,-4,-16,43,25,11,30.05,29.78,17,4,17,0.00
2013-12-11,39,24,12,10,6,-1,61,46,29,30.16,30.05,9,2,9,0.00
2013-12-12,60,32,14,15,6,-3,64,40,9,30.11,29.81,8,1,8,0.00
2013-12-13,51,33,18,12,6,-3,61,36,11,30.02,29.72,15,2,15,0.00
2013-12-14,47,32,22,10,5,-4,57,35,14,30.16,29.99,12,2,12,0.00
2013-12-15,58,42,24,14,4,-5,50,24,10,30.05,29.99,14,3,14,0.00
2013-12-16,65,50,33,9,1,-8,23,13,9,30.11,29.96,15,3,15,0.00
2013-12-17,65,44,26,12,4,-5,43,23,9,30.16,29.96,6,2,8,0.00
2013-12-18,67,50,37,9,2,-5,24,14,9,29.96,29.66,9,2,9,0.00
2013-12-19,47,34,16,16,11,4,70,40,24,29.78,29.52,11,2,11,0.00
2013-12-20,25,21,17,16,13,8,78,71,61,29.75,29.57,7,1,7,0.00
2013-12-21,32,22,13,21,12,6,81,66,43,29.78,29.49,10,1,10,0.00
2013-12-22,43,29,17,17,7,-6,78,47,16,30.05,29.78,17,3,17,0.00
2013-12-23,50,31,20,16,12,4,72,49,16,30.14,29.96,9,1,9,0.00
2013-12-24,55,40,24,16,8,-5,39,26,13,30.14,29.87,29,4,29,0.00
2013-12-25,48,30,15,4,-2,-10,50,28,12,30.25,30.05,11,2,11,0.00
2013-12-26,54,38,25,4,-2,-8,36,19,10,30.16,30.02,11,2,11,0.00
2013-12-27,62,43,27,11,6,-2,40,24,11,30.14,29.93,8,2,8,0.00
2013-12-28,60,38,22,21,11,0,76,38,12,30.08,29.75,16,3,16,0.00
2013-12-29,37,25,14,12,6,-6,66,47,19,30.11,29.84,8,2,8,0.00
2013-12-30,50,37,23,9,3,-5,49,26,11,30.08,29.87,18,4,18,0.00
2013-12-31,59,41,26,15,7,0,45,27,12,29.99,29.84,13,3,18,0.00
2014-1-1,42,36,30,28,18,9,74,48,30,30.14,29.81,13,3,13,0.00
2014-1-2,49,35,16,17,12,4,73,41,17,30.14,29.93,8,2,8,0.00